IBS1821 LEMD-EKCH

Flight info

Callsign IBS1821
Flight time 2h 39m
Altitude 34000
Route RBO N867 DGO L176 LUSEM DCT LULUT DCT ADABI/N0450F360 DCT BOKNO UN858 VANAD UN874 ARSAF DCT EGOZE DCT CMB DCT VEKIN DCT ADUTO/N0449F350 DCT VICOT DCT DOSUR P729 TUDLO
Aircraft A320/M-SDE3FGHIRWY/LB1

Departure

Time 2026-05-07 16:03
Airport Adolfo Suárez Madrid–Barajas Airport (LEMD)

Arrival

Time 2026-05-07 18:42
Airport Copenhagen Kastrup Airport (EKCH)
Time Latitude Longitude Altitude Speed Heading
2026-05-07 15:44 40.49346 -3.58733 2022 ft 0 kts 271°
2026-05-07 15:56 40.49344 -3.58792 2022 ft 11 kts 249°
2026-05-07 15:56 40.49265 -3.58814 2022 ft 15 kts 179°
2026-05-07 15:56 40.49147 -3.58813 2022 ft 18 kts 179°
2026-05-07 15:56 40.49022 -3.58812 2022 ft 20 kts 179°
2026-05-07 15:57 40.48863 -3.58811 2022 ft 23 kts 179°
2026-05-07 15:57 40.48759 -3.58755 2026 ft 16 kts 97°
2026-05-07 15:57 40.48759 -3.58591 2022 ft 21 kts 90°
2026-05-07 15:57 40.48761 -3.58359 2014 ft 30 kts 90°
2026-05-07 15:58 40.48762 -3.58081 2004 ft 31 kts 90°
2026-05-07 15:58 40.48763 -3.57791 1994 ft 32 kts 90°
2026-05-07 15:58 40.48764 -3.57499 1989 ft 31 kts 90°
2026-05-07 15:58 40.48765 -3.57215 1985 ft 31 kts 89°
2026-05-07 15:59 40.48766 -3.56936 1982 ft 30 kts 90°
2026-05-07 15:59 40.48768 -3.56659 1973 ft 30 kts 89°
2026-05-07 15:59 40.48769 -3.56379 1965 ft 31 kts 89°
2026-05-07 15:59 40.48794 -3.56140 1960 ft 22 kts 32°
2026-05-07 16:00 40.48945 -3.56138 1959 ft 22 kts 359°
2026-05-07 16:00 40.49096 -3.56140 1959 ft 22 kts 360°
2026-05-07 16:00 40.49255 -3.56141 1959 ft 23 kts
2026-05-07 16:00 40.49400 -3.56117 1962 ft 19 kts 47°
2026-05-07 16:01 40.49411 -3.55940 1961 ft 19 kts 90°
2026-05-07 16:01 40.49411 -3.55914 1961 ft 1 kts 90°
2026-05-07 16:01 40.49411 -3.55837 1962 ft 15 kts 90°
2026-05-07 16:01 40.49364 -3.55666 1962 ft 26 kts 141°
2026-05-07 16:02 40.49200 -3.55499 1957 ft 44 kts 142°
2026-05-07 16:02 40.48764 -3.55053 1950 ft 112 kts 142°
2026-05-07 16:02 40.47995 -3.54273 1932 ft 165 kts 142°
2026-05-07 16:02 40.47006 -3.53277 2266 ft 181 kts 141°
2026-05-07 16:03 40.45991 -3.52275 2969 ft 183 kts 142°
2026-05-07 16:03 40.44993 -3.51269 3615 ft 183 kts 143°
2026-05-07 16:03 40.43932 -3.50188 3847 ft 204 kts 143°
2026-05-07 16:03 40.42929 -3.48775 4207 ft 221 kts 121°
2026-05-07 16:04 40.42230 -3.46916 4816 ft 230 kts 117°
2026-05-07 16:04 40.41534 -3.45004 5522 ft 234 kts 117°
2026-05-07 16:04 40.40826 -3.43065 6218 ft 238 kts 117°
2026-05-07 16:04 40.40104 -3.41092 6882 ft 241 kts 118°
2026-05-07 16:05 40.39546 -3.38934 7240 ft 264 kts 96°
2026-05-07 16:05 40.39863 -3.36490 7638 ft 284 kts 64°
2026-05-07 16:05 40.41171 -3.34544 8267 ft 291 kts 31°
2026-05-07 16:05 40.43096 -3.33716 8976 ft 294 kts
2026-05-07 16:06 40.45138 -3.33341 9714 ft 298 kts
2026-05-07 16:06 40.47210 -3.32976 10232 ft 309 kts
2026-05-07 16:06 40.49432 -3.32585 10393 ft 332 kts
2026-05-07 16:06 40.51802 -3.32162 10531 ft 355 kts
2026-05-07 16:07 40.54299 -3.31712 10839 ft 368 kts
2026-05-07 16:07 40.56856 -3.31247 11409 ft 373 kts
2026-05-07 16:07 40.59405 -3.30778 12035 ft 377 kts
2026-05-07 16:07 40.62013 -3.30294 12672 ft 380 kts
2026-05-07 16:08 40.64641 -3.29772 13301 ft 383 kts
2026-05-07 16:08 40.67286 -3.29189 13899 ft 387 kts
2026-05-07 16:08 40.69952 -3.28567 14441 ft 390 kts
2026-05-07 16:08 40.72633 -3.27931 14972 ft 393 kts
2026-05-07 16:09 40.75335 -3.27295 15518 ft 396 kts
2026-05-07 16:09 40.78061 -3.26662 16038 ft 399 kts
2026-05-07 16:09 40.80805 -3.26034 16564 ft 402 kts
2026-05-07 16:09 40.83570 -3.25406 17073 ft 404 kts
2026-05-07 16:10 40.86353 -3.24774 17589 ft 407 kts
2026-05-07 16:10 40.89159 -3.24139 18087 ft 410 kts
2026-05-07 16:10 40.91979 -3.23502 18536 ft 413 kts
2026-05-07 16:10 40.94819 -3.22859 18957 ft 416 kts
2026-05-07 16:11 40.97678 -3.22210 19371 ft 418 kts
2026-05-07 16:11 41.00560 -3.21554 19775 ft 421 kts
2026-05-07 16:11 41.03460 -3.20894 20186 ft 424 kts
2026-05-07 16:11 41.06379 -3.20230 20575 ft 427 kts
2026-05-07 16:12 41.09312 -3.19557 20964 ft 430 kts
2026-05-07 16:12 41.12273 -3.18873 21331 ft 433 kts
2026-05-07 16:12 41.15250 -3.18182 21739 ft 435 kts
2026-05-07 16:12 41.18241 -3.17486 22138 ft 438 kts
2026-05-07 16:13 41.21253 -3.16783 22519 ft 440 kts
2026-05-07 16:13 41.24283 -3.16079 22888 ft 443 kts
2026-05-07 16:13 41.27325 -3.15377 23259 ft 445 kts
2026-05-07 16:13 41.30382 -3.14675 23601 ft 447 kts
2026-05-07 16:14 41.33458 -3.13965 23903 ft 449 kts
2026-05-07 16:14 41.36546 -3.13247 24234 ft 451 kts
2026-05-07 16:14 41.39638 -3.12526 24550 ft 452 kts
2026-05-07 16:14 41.42743 -3.11802 24849 ft 454 kts
2026-05-07 16:15 41.45818 -3.11083 25144 ft 456 kts
2026-05-07 16:15 41.48953 -3.10350 25431 ft 458 kts
2026-05-07 16:15 41.52098 -3.09620 25715 ft 460 kts
2026-05-07 16:15 41.55259 -3.08897 25994 ft 462 kts
2026-05-07 16:16 41.58432 -3.08178 26262 ft 464 kts
2026-05-07 16:16 41.61622 -3.07459 26525 ft 465 kts
2026-05-07 16:16 41.64819 -3.06739 26780 ft 467 kts
2026-05-07 16:16 41.68033 -3.06014 27032 ft 469 kts
2026-05-07 16:17 41.71260 -3.05280 27280 ft 471 kts
2026-05-07 16:17 41.74498 -3.04537 27529 ft 473 kts
2026-05-07 16:17 41.77706 -3.03797 27764 ft 474 kts
2026-05-07 16:17 41.80969 -3.03045 28017 ft 476 kts
2026-05-07 16:18 41.84236 -3.02293 28290 ft 477 kts
2026-05-07 16:18 41.87505 -3.01540 28620 ft 476 kts
2026-05-07 16:18 41.90774 -3.00785 28970 ft 476 kts
2026-05-07 16:18 41.94046 -3.00032 29297 ft 476 kts
2026-05-07 16:19 41.97308 -2.99279 29625 ft 475 kts
2026-05-07 16:19 42.00570 -2.98524 29956 ft 475 kts
2026-05-07 16:19 42.03830 -2.97768 30254 ft 475 kts
2026-05-07 16:19 42.07083 -2.97009 30537 ft 474 kts
2026-05-07 16:20 42.10329 -2.96250 30829 ft 474 kts
2026-05-07 16:20 42.13583 -2.95490 31129 ft 473 kts
2026-05-07 16:20 42.16779 -2.94749 31416 ft 471 kts
2026-05-07 16:20 42.20007 -2.94001 31714 ft 471 kts
2026-05-07 16:21 42.23238 -2.93248 32016 ft 470 kts
2026-05-07 16:21 42.26458 -2.92494 32289 ft 469 kts
2026-05-07 16:21 42.29669 -2.91743 32563 ft 468 kts
2026-05-07 16:21 42.32882 -2.90993 32839 ft 467 kts
2026-05-07 16:22 42.36084 -2.90245 33100 ft 467 kts
2026-05-07 16:22 42.39276 -2.89498 33361 ft 466 kts
2026-05-07 16:22 42.42445 -2.88499 33640 ft 468 kts 16°
2026-05-07 16:22 42.45451 -2.86815 33909 ft 470 kts 26°
2026-05-07 16:23 42.48226 -2.84462 34108 ft 471 kts 36°
2026-05-07 16:23 42.50725 -2.81581 34304 ft 472 kts 40°
2026-05-07 16:23 42.53184 -2.78616 34501 ft 473 kts 40°
2026-05-07 16:23 42.55646 -2.75657 34692 ft 473 kts 40°
2026-05-07 16:24 42.58075 -2.72736 34904 ft 473 kts 40°
2026-05-07 16:24 42.60540 -2.69767 35091 ft 473 kts 40°
2026-05-07 16:24 42.63007 -2.66787 35278 ft 473 kts 40°
2026-05-07 16:24 42.64636 -2.64815 35397 ft 474 kts 40°
2026-05-07 16:25 42.67094 -2.61834 35564 ft 474 kts 40°
2026-05-07 16:25 42.69553 -2.58853 35727 ft 474 kts 40°
2026-05-07 16:25 42.72013 -2.55865 35879 ft 475 kts 40°
2026-05-07 16:26 42.76968 -2.49834 35912 ft 482 kts 40°
2026-05-07 16:26 42.82003 -2.43691 35912 ft 489 kts 40°
2026-05-07 16:27 42.87076 -2.37498 35910 ft 490 kts 40°
2026-05-07 16:27 42.92156 -2.31277 35908 ft 490 kts 41°
2026-05-07 16:28 42.97222 -2.25051 35898 ft 490 kts 41°
2026-05-07 16:28 43.02262 -2.18854 35908 ft 490 kts 41°
2026-05-07 16:29 43.07326 -2.12603 35906 ft 490 kts 41°
2026-05-07 16:29 43.12384 -2.06340 35909 ft 490 kts 41°
2026-05-07 16:30 43.17443 -2.00074 35905 ft 490 kts 41°
2026-05-07 16:30 43.22499 -1.93811 35902 ft 490 kts 41°
2026-05-07 16:31 43.27550 -1.87515 35901 ft 490 kts 41°
2026-05-07 16:31 43.32822 -1.81712 35904 ft 487 kts 29°
2026-05-07 16:32 43.38693 -1.77070 35902 ft 487 kts 29°
2026-05-07 16:32 43.44418 -1.72072 35903 ft 487 kts 32°
2026-05-07 16:33 43.50021 -1.66829 35929 ft 487 kts 33°
2026-05-07 16:33 43.55646 -1.61608 35931 ft 486 kts 32°
2026-05-07 16:34 43.61299 -1.56485 35926 ft 486 kts 31°
2026-05-07 16:34 43.66885 -1.51447 35922 ft 485 kts 32°
2026-05-07 16:35 43.72397 -1.46430 35920 ft 485 kts 32°
2026-05-07 16:35 43.78015 -1.41275 35911 ft 485 kts 32°
2026-05-07 16:36 43.83644 -1.36111 35912 ft 485 kts 32°
2026-05-07 16:36 43.89272 -1.30955 35915 ft 484 kts 32°
2026-05-07 16:37 43.94899 -1.25786 35916 ft 484 kts 32°
2026-05-07 16:37 44.00481 -1.20640 35917 ft 484 kts 32°
2026-05-07 16:38 44.06092 -1.15449 35920 ft 484 kts 32°
2026-05-07 16:38 44.11698 -1.10251 35927 ft 484 kts 32°
2026-05-07 16:39 44.17306 -1.05049 35927 ft 484 kts 32°
2026-05-07 16:39 44.22912 -0.99833 35935 ft 484 kts 32°
2026-05-07 16:40 44.28505 -0.94612 35935 ft 484 kts 32°
2026-05-07 16:40 44.34097 -0.89372 35937 ft 484 kts 32°
2026-05-07 16:41 44.39728 -0.84220 35935 ft 482 kts 26°
2026-05-07 16:41 44.45772 -0.80381 35941 ft 480 kts 21°
2026-05-07 16:42 44.51898 -0.76662 35939 ft 479 kts 21°
2026-05-07 16:42 44.58014 -0.72922 35957 ft 479 kts 21°
2026-05-07 16:43 44.64121 -0.69170 35959 ft 479 kts 21°
2026-05-07 16:43 44.70223 -0.65425 35965 ft 478 kts 21°
2026-05-07 16:44 44.76325 -0.61672 35964 ft 478 kts 21°
2026-05-07 16:44 44.82417 -0.57916 35966 ft 478 kts 21°
2026-05-07 16:45 44.88505 -0.54152 35964 ft 478 kts 22°
2026-05-07 16:45 44.94592 -0.50376 35968 ft 477 kts 22°
2026-05-07 16:46 45.00635 -0.46621 35965 ft 477 kts 22°
2026-05-07 16:46 45.06706 -0.42835 35968 ft 477 kts 22°
2026-05-07 16:47 45.12778 -0.39037 35969 ft 476 kts 22°
2026-05-07 16:47 45.18849 -0.35248 35970 ft 476 kts 22°
2026-05-07 16:48 45.24906 -0.31464 35968 ft 476 kts 22°
2026-05-07 16:48 45.30962 -0.27648 35972 ft 476 kts 22°
2026-05-07 16:49 45.37006 -0.23835 35969 ft 475 kts 22°
2026-05-07 16:49 45.43050 -0.20025 35971 ft 475 kts 22°
2026-05-07 16:50 45.49092 -0.16209 35971 ft 475 kts 22°
2026-05-07 16:50 45.55128 -0.12375 35972 ft 474 kts 22°
2026-05-07 16:51 45.61153 -0.08537 35973 ft 474 kts 22°
2026-05-07 16:51 45.67136 -0.04717 35976 ft 474 kts 22°
2026-05-07 16:52 45.73159 -0.00874 35960 ft 473 kts 22°
2026-05-07 16:52 45.79171 0.02969 35971 ft 473 kts 22°
2026-05-07 16:53 45.85177 0.06829 35965 ft 473 kts 22°
2026-05-07 16:53 45.91184 0.10702 35977 ft 473 kts 22°
2026-05-07 16:54 45.97185 0.14568 35986 ft 472 kts 22°
2026-05-07 16:54 46.03181 0.18436 35988 ft 472 kts 22°
2026-05-07 16:55 46.09170 0.22322 35999 ft 472 kts 22°
2026-05-07 16:55 46.15153 0.26223 35997 ft 472 kts 22°
2026-05-07 16:56 46.21096 0.30091 35997 ft 471 kts 22°
2026-05-07 16:56 46.30068 0.35947 36001 ft 471 kts 22°
2026-05-07 16:57 46.36043 0.39852 36004 ft 471 kts 22°
2026-05-07 16:57 46.42014 0.43770 36000 ft 471 kts 23°
2026-05-07 16:58 46.47980 0.47706 35995 ft 471 kts 23°
2026-05-07 16:58 46.53939 0.51647 35997 ft 471 kts 22°
2026-05-07 16:59 46.60173 0.54426 36003 ft 468 kts 11°
2026-05-07 16:59 46.66494 0.56481 36003 ft 468 kts 11°
2026-05-07 17:00 46.72857 0.58584 36004 ft 468 kts 11°
2026-05-07 17:00 46.79211 0.60694 36007 ft 468 kts 11°
2026-05-07 17:01 46.85566 0.62799 36015 ft 468 kts 12°
2026-05-07 17:01 46.91912 0.64912 36013 ft 468 kts 12°
2026-05-07 17:02 46.98257 0.67027 36016 ft 468 kts 11°
2026-05-07 17:02 47.04576 0.69039 36015 ft 467 kts
2026-05-07 17:03 47.11029 0.69821 36014 ft 466 kts
2026-05-07 17:03 47.17498 0.70491 36016 ft 465 kts
2026-05-07 17:04 47.23972 0.71176 36013 ft 466 kts
2026-05-07 17:04 47.30429 0.71851 35998 ft 465 kts
2026-05-07 17:05 47.36881 0.72522 36004 ft 464 kts
2026-05-07 17:05 47.43285 0.73195 35998 ft 464 kts
2026-05-07 17:06 47.49723 0.74154 36010 ft 465 kts 11°
2026-05-07 17:06 47.55919 0.76976 36009 ft 466 kts 17°
2026-05-07 17:07 47.62082 0.80021 36011 ft 467 kts 17°
2026-05-07 17:07 47.68256 0.83052 36005 ft 467 kts 17°
2026-05-07 17:08 47.74399 0.86087 36015 ft 468 kts 17°
2026-05-07 17:08 47.80570 0.89160 36014 ft 468 kts 17°
2026-05-07 17:09 47.86748 0.92231 36025 ft 468 kts 17°
2026-05-07 17:09 47.92920 0.95330 36027 ft 468 kts 17°
2026-05-07 17:10 47.99092 0.98478 36022 ft 469 kts 18°
2026-05-07 17:10 48.05267 1.01635 36033 ft 469 kts 18°
2026-05-07 17:11 48.11442 1.04771 36034 ft 469 kts 17°
2026-05-07 17:11 48.17623 1.07912 36040 ft 469 kts 18°
2026-05-07 17:12 48.22762 1.10536 36031 ft 469 kts 18°
2026-05-07 17:12 48.28946 1.13690 36039 ft 469 kts 18°
2026-05-07 17:13 48.36140 1.17367 36038 ft 470 kts 17°
2026-05-07 17:13 48.41325 1.20021 36043 ft 470 kts 18°
2026-05-07 17:14 48.47479 1.23179 36042 ft 470 kts 17°
2026-05-07 17:14 48.53675 1.26357 36044 ft 470 kts 18°
2026-05-07 17:15 48.59878 1.29530 36048 ft 470 kts 17°
2026-05-07 17:15 48.66064 1.32641 36050 ft 471 kts 17°
2026-05-07 17:16 48.72290 1.35768 36051 ft 471 kts 17°
2026-05-07 17:16 48.78508 1.38912 36046 ft 471 kts 17°
2026-05-07 17:17 48.84710 1.42066 36044 ft 471 kts 17°
2026-05-07 17:17 48.90925 1.45238 36043 ft 472 kts 17°
2026-05-07 17:18 48.96905 1.49322 36040 ft 473 kts 32°
2026-05-07 17:18 49.01842 1.55950 36048 ft 475 kts 48°
2026-05-07 17:19 49.06230 1.63492 36038 ft 475 kts 47°
2026-05-07 17:19 49.10642 1.71048 36026 ft 479 kts 47°
2026-05-07 17:20 49.15070 1.78664 36024 ft 484 kts 48°
2026-05-07 17:20 49.19545 1.86392 36029 ft 485 kts 48°
2026-05-07 17:21 49.24022 1.94137 36032 ft 486 kts 48°
2026-05-07 17:21 49.28488 2.01905 36039 ft 486 kts 48°
2026-05-07 17:22 49.32949 2.09696 36065 ft 486 kts 48°
2026-05-07 17:22 49.37384 2.17439 36072 ft 486 kts 48°
2026-05-07 17:23 49.41844 2.25248 36078 ft 486 kts 48°
2026-05-07 17:23 49.46304 2.33072 36075 ft 486 kts 48°
2026-05-07 17:24 49.50746 2.40922 36073 ft 486 kts 48°
2026-05-07 17:24 49.55354 2.48527 36073 ft 485 kts 39°
2026-05-07 17:25 49.60913 2.54364 36065 ft 483 kts 30°
2026-05-07 17:25 49.66608 2.59865 36065 ft 483 kts 31°
2026-05-07 17:26 49.72293 2.65407 36069 ft 483 kts 31°
2026-05-07 17:26 49.77978 2.70957 36072 ft 483 kts 31°
2026-05-07 17:27 49.83621 2.76474 36078 ft 483 kts 31°
2026-05-07 17:27 49.89317 2.82030 36075 ft 483 kts 31°
2026-05-07 17:28 49.95003 2.87597 36077 ft 483 kts 31°
2026-05-07 17:28 50.00678 2.93197 36076 ft 483 kts 31°
2026-05-07 17:29 50.06326 2.98766 36075 ft 483 kts 31°
2026-05-07 17:29 50.12020 3.04399 36080 ft 483 kts 31°
2026-05-07 17:30 50.17685 3.10035 36080 ft 483 kts 31°
2026-05-07 17:30 50.23404 3.15520 36082 ft 481 kts 24°
2026-05-07 17:31 50.29458 3.19786 36087 ft 480 kts 22°
2026-05-07 17:31 50.35559 3.24057 36093 ft 480 kts 22°
2026-05-07 17:32 50.41646 3.28363 36098 ft 480 kts 23°
2026-05-07 17:32 50.47652 3.32966 36100 ft 481 kts 25°
2026-05-07 17:33 50.53624 3.37724 36099 ft 481 kts 24°
2026-05-07 17:33 50.59700 3.42105 36098 ft 480 kts 21°
2026-05-07 17:34 50.65846 3.46252 36096 ft 480 kts 21°
2026-05-07 17:34 50.71935 3.50421 36095 ft 480 kts 22°
2026-05-07 17:35 50.78043 3.54716 36089 ft 480 kts 22°
2026-05-07 17:35 50.84125 3.59050 36078 ft 480 kts 22°
2026-05-07 17:36 50.90222 3.63382 36089 ft 480 kts 22°
2026-05-07 17:36 50.96323 3.67713 36086 ft 480 kts 22°
2026-05-07 17:37 51.02412 3.72050 36084 ft 480 kts 22°
2026-05-07 17:37 51.08508 3.76406 36089 ft 480 kts 22°
2026-05-07 17:38 51.14553 3.80735 36089 ft 480 kts 22°
2026-05-07 17:38 51.20642 3.85109 36096 ft 480 kts 23°
2026-05-07 17:39 51.26730 3.89493 36102 ft 480 kts 23°
2026-05-07 17:39 51.32813 3.93889 36098 ft 480 kts 23°
2026-05-07 17:40 51.38892 3.98299 36101 ft 479 kts 23°
2026-05-07 17:40 51.44604 4.03477 36079 ft 476 kts 45°
2026-05-07 17:41 51.49162 4.11255 36084 ft 480 kts 43°
2026-05-07 17:41 51.54006 4.18652 36080 ft 480 kts 43°
2026-05-07 17:42 51.58877 4.25987 36082 ft 480 kts 43°
2026-05-07 17:42 51.63732 4.33366 36084 ft 480 kts 43°
2026-05-07 17:43 51.68565 4.40786 36081 ft 480 kts 43°
2026-05-07 17:43 51.73389 4.48242 36082 ft 480 kts 43°
2026-05-07 17:44 51.78210 4.55695 36084 ft 480 kts 43°
2026-05-07 17:44 51.83033 4.63154 36083 ft 480 kts 43°
2026-05-07 17:45 51.87846 4.70629 36082 ft 480 kts 43°
2026-05-07 17:45 51.90257 4.74382 35960 ft 480 kts 43°
2026-05-07 17:45 51.92665 4.78126 35837 ft 480 kts 43°
2026-05-07 17:46 51.95039 4.81822 35714 ft 479 kts 44°
2026-05-07 17:46 51.97440 4.85574 35586 ft 479 kts 44°
2026-05-07 17:46 51.99835 4.89326 35464 ft 479 kts 44°
2026-05-07 17:46 52.02231 4.93089 35336 ft 479 kts 44°
2026-05-07 17:47 52.04624 4.96851 35198 ft 479 kts 44°
2026-05-07 17:47 52.07020 5.00621 35038 ft 477 kts 44°
2026-05-07 17:47 52.11788 5.08146 35079 ft 477 kts 44°
2026-05-07 17:48 52.16521 5.15643 35078 ft 477 kts 44°
2026-05-07 17:48 52.21275 5.23197 35080 ft 477 kts 44°
2026-05-07 17:49 52.26019 5.30761 35086 ft 476 kts 44°
2026-05-07 17:49 52.30762 5.38328 35084 ft 477 kts 44°
2026-05-07 17:50 52.35500 5.45926 35098 ft 477 kts 44°
2026-05-07 17:50 52.40228 5.53543 35100 ft 477 kts 44°
2026-05-07 17:51 52.44949 5.61159 35099 ft 476 kts 44°
2026-05-07 17:51 52.49666 5.68775 35101 ft 476 kts 44°
2026-05-07 17:52 52.54378 5.76416 35100 ft 476 kts 45°
2026-05-07 17:52 52.59046 5.84038 35097 ft 475 kts 45°
2026-05-07 17:53 52.63732 5.91717 35096 ft 475 kts 45°
2026-05-07 17:53 52.68416 5.99402 35082 ft 475 kts 45°
2026-05-07 17:54 52.73107 6.07092 35085 ft 475 kts 45°
2026-05-07 17:54 52.77749 6.14737 35087 ft 475 kts 45°
2026-05-07 17:55 52.82408 6.22472 35098 ft 475 kts 45°
2026-05-07 17:55 52.87067 6.30219 35097 ft 474 kts 45°
2026-05-07 17:56 52.91712 6.37959 35113 ft 474 kts 45°
2026-05-07 17:56 52.96356 6.45708 35121 ft 473 kts 45°
2026-05-07 17:57 53.00211 6.52163 35130 ft 473 kts 46°
2026-05-07 17:57 53.05619 6.61268 35128 ft 472 kts 46°
2026-05-07 17:58 53.10198 6.69007 35131 ft 472 kts 46°
2026-05-07 17:58 53.14792 6.76799 35129 ft 471 kts 46°
2026-05-07 17:59 53.19385 6.84579 35121 ft 470 kts 46°
2026-05-07 17:59 53.23972 6.92377 35114 ft 470 kts 46°
2026-05-07 18:00 53.28527 7.00185 35124 ft 469 kts 46°
2026-05-07 18:00 53.33070 7.07994 35132 ft 468 kts 46°
2026-05-07 18:01 53.37611 7.15803 35133 ft 467 kts 46°
2026-05-07 18:01 53.42102 7.23551 35136 ft 465 kts 46°
2026-05-07 18:02 53.48837 7.35242 35132 ft 464 kts 47°
2026-05-07 18:03 53.53307 7.43030 35129 ft 462 kts 47°
2026-05-07 18:03 53.57011 7.49497 35133 ft 462 kts 47°
2026-05-07 18:04 53.61462 7.57278 35132 ft 460 kts 47°
2026-05-07 18:04 53.65891 7.65057 35126 ft 459 kts 47°
2026-05-07 18:05 53.70300 7.72830 35128 ft 458 kts 47°
2026-05-07 18:05 53.74709 7.80628 35131 ft 458 kts 47°
2026-05-07 18:06 53.79094 7.88403 35125 ft 457 kts 47°
2026-05-07 18:06 53.83472 7.96188 35122 ft 456 kts 47°
2026-05-07 18:07 53.87838 8.03990 35122 ft 455 kts 47°
2026-05-07 18:07 53.92189 8.11790 35120 ft 455 kts 47°
2026-05-07 18:08 53.96501 8.19540 35117 ft 454 kts 47°
2026-05-07 18:08 54.00834 8.27360 35122 ft 454 kts 47°
2026-05-07 18:09 54.05162 8.35172 35121 ft 453 kts 47°
2026-05-07 18:09 54.09482 8.43005 35116 ft 453 kts 47°
2026-05-07 18:10 54.13792 8.50864 35113 ft 453 kts 47°
2026-05-07 18:10 54.18091 8.58741 35109 ft 453 kts 47°
2026-05-07 18:11 54.22393 8.66615 35110 ft 453 kts 47°
2026-05-07 18:11 54.26662 8.74439 35116 ft 453 kts 47°
2026-05-07 18:12 54.30954 8.82351 35115 ft 453 kts 47°
2026-05-07 18:12 54.35260 8.90325 35118 ft 453 kts 48°
2026-05-07 18:13 54.39501 8.98206 35116 ft 452 kts 48°
2026-05-07 18:13 54.43772 9.06158 35115 ft 452 kts 47°
2026-05-07 18:14 54.47717 9.14524 35114 ft 451 kts 55°
2026-05-07 18:14 54.51316 9.23392 35109 ft 452 kts 55°
2026-05-07 18:15 54.54915 9.32270 35109 ft 452 kts 55°
2026-05-07 18:15 54.58488 9.41119 35113 ft 452 kts 55°
2026-05-07 18:16 54.62077 9.50045 35112 ft 452 kts 55°
2026-05-07 18:16 54.65660 9.58978 35113 ft 452 kts 55°
2026-05-07 18:17 54.69234 9.67938 35118 ft 452 kts 55°
2026-05-07 18:17 54.72771 9.76865 35130 ft 453 kts 56°
2026-05-07 18:18 54.76330 9.85862 35135 ft 453 kts 55°
2026-05-07 18:18 54.79892 9.94863 35133 ft 453 kts 55°
2026-05-07 18:19 54.83454 10.03886 35134 ft 453 kts 56°
2026-05-07 18:19 54.87000 10.12952 35134 ft 453 kts 56°
2026-05-07 18:20 54.90512 10.21965 35132 ft 454 kts 56°
2026-05-07 18:20 54.94042 10.31056 35134 ft 454 kts 56°
2026-05-07 18:21 54.97573 10.40186 35135 ft 454 kts 56°
2026-05-07 18:21 55.01103 10.49320 35133 ft 454 kts 56°
2026-05-07 18:22 55.04621 10.58448 34142 ft 452 kts 56°
2026-05-07 18:22 55.05779 10.61470 33177 ft 452 kts 56°
2026-05-07 18:22 55.08115 10.67589 31049 ft 456 kts 56°
2026-05-07 18:22 55.09883 10.72221 29212 ft 462 kts 56°
2026-05-07 18:23 55.11676 10.76925 27174 ft 468 kts 56°
2026-05-07 18:23 55.13493 10.81701 25384 ft 478 kts 56°
2026-05-07 18:23 55.15336 10.86555 24654 ft 473 kts 56°
2026-05-07 18:23 55.17123 10.91275 24350 ft 457 kts 56°
2026-05-07 18:24 55.18826 10.95778 23964 ft 445 kts 56°
2026-05-07 18:24 55.20529 11.00281 23194 ft 442 kts 56°
2026-05-07 18:24 55.22214 11.04734 22555 ft 437 kts 56°
2026-05-07 18:24 55.23884 11.09163 21921 ft 432 kts 56°
2026-05-07 18:25 55.25518 11.13538 21445 ft 425 kts 56°
2026-05-07 18:25 55.27116 11.17878 21183 ft 423 kts 57°
2026-05-07 18:25 55.28697 11.22211 20930 ft 421 kts 57°
2026-05-07 18:25 55.30270 11.26535 20677 ft 419 kts 57°
2026-05-07 18:26 55.31834 11.30842 20424 ft 418 kts 57°
2026-05-07 18:26 55.33398 11.35150 20171 ft 417 kts 57°
2026-05-07 18:26 55.34955 11.39437 19924 ft 415 kts 57°
2026-05-07 18:26 55.36499 11.43691 19525 ft 409 kts 57°
2026-05-07 18:27 55.38022 11.47886 18993 ft 405 kts 57°
2026-05-07 18:27 55.39529 11.52050 18495 ft 401 kts 57°
2026-05-07 18:27 55.41019 11.56176 17966 ft 397 kts 57°
2026-05-07 18:27 55.42488 11.60256 17461 ft 392 kts 57°
2026-05-07 18:28 55.43938 11.64292 16988 ft 387 kts 57°
2026-05-07 18:28 55.45351 11.68228 16501 ft 383 kts 57°
2026-05-07 18:28 55.46776 11.72198 15887 ft 383 kts 57°
2026-05-07 18:28 55.48198 11.76163 15382 ft 380 kts 57°
2026-05-07 18:29 55.49601 11.80075 14879 ft 378 kts 57°
2026-05-07 18:29 55.51005 11.84000 14348 ft 376 kts 57°
2026-05-07 18:29 55.52394 11.87897 13799 ft 374 kts 57°
2026-05-07 18:29 55.53773 11.91776 13224 ft 372 kts 57°
2026-05-07 18:30 55.55139 11.95622 12674 ft 368 kts 58°
2026-05-07 18:30 55.56493 11.99434 12119 ft 365 kts 58°
2026-05-07 18:30 55.57839 12.03228 11551 ft 362 kts 58°
2026-05-07 18:30 55.59171 12.06991 10973 ft 359 kts 58°
2026-05-07 18:31 55.60476 12.10688 10786 ft 346 kts 58°
2026-05-07 18:31 55.61723 12.14219 10655 ft 331 kts 58°
2026-05-07 18:31 55.62905 12.17566 10532 ft 318 kts 58°
2026-05-07 18:31 55.64056 12.20841 10415 ft 307 kts 58°
2026-05-07 18:32 55.65161 12.23996 10281 ft 296 kts 58°
2026-05-07 18:32 55.66227 12.27047 10125 ft 287 kts 58°
2026-05-07 18:32 55.67265 12.30019 9942 ft 281 kts 58°
2026-05-07 18:32 55.68294 12.32966 9803 ft 282 kts 58°
2026-05-07 18:33 55.69325 12.35920 9334 ft 279 kts 58°
2026-05-07 18:33 55.70340 12.38825 8922 ft 276 kts 58°
2026-05-07 18:33 55.71350 12.41710 8494 ft 274 kts 58°
2026-05-07 18:33 55.72351 12.44580 8073 ft 273 kts 58°
2026-05-07 18:34 55.73333 12.47403 7652 ft 273 kts 58°
2026-05-07 18:34 55.74329 12.50269 7232 ft 273 kts 57°
2026-05-07 18:34 55.75322 12.53131 6815 ft 273 kts 57°
2026-05-07 18:34 55.76319 12.56006 6416 ft 272 kts 57°
2026-05-07 18:35 55.77307 12.58854 5998 ft 270 kts 57°
2026-05-07 18:35 55.78286 12.61682 5549 ft 266 kts 57°
2026-05-07 18:35 55.79247 12.64470 5123 ft 265 kts 57°
2026-05-07 18:35 55.80206 12.67260 4696 ft 264 kts 57°
2026-05-07 18:36 55.81159 12.70040 4299 ft 262 kts 57°
2026-05-07 18:36 55.81856 12.72980 4034 ft 257 kts 81°
2026-05-07 18:36 55.81663 12.76008 4026 ft 242 kts 112°
2026-05-07 18:36 55.80717 12.78378 4027 ft 229 kts 133°
2026-05-07 18:37 55.79629 12.80301 4021 ft 213 kts 135°
2026-05-07 18:37 55.78585 12.82073 4033 ft 205 kts 135°
2026-05-07 18:37 55.77404 12.83460 3652 ft 207 kts 164°
2026-05-07 18:37 55.75975 12.83485 3247 ft 208 kts 191°
2026-05-07 18:38 55.74565 12.82935 2874 ft 207 kts 195°
2026-05-07 18:38 55.73168 12.82315 2504 ft 206 kts 195°
2026-05-07 18:38 55.71882 12.81292 2146 ft 203 kts 220°
2026-05-07 18:38 55.70848 12.79694 2025 ft 188 kts 224°
2026-05-07 18:39 55.69931 12.78259 1975 ft 165 kts 224°
2026-05-07 18:39 55.69104 12.76969 1798 ft 154 kts 223°
2026-05-07 18:39 55.68315 12.75738 1597 ft 149 kts 224°
2026-05-07 18:39 55.67540 12.74531 1415 ft 147 kts 224°
2026-05-07 18:40 55.66774 12.73337 1213 ft 146 kts 224°
2026-05-07 18:40 55.66022 12.72169 1008 ft 145 kts 224°
2026-05-07 18:40 55.65255 12.70980 801 ft 143 kts 222°
2026-05-07 18:40 55.64506 12.69847 643 ft 140 kts 222°
2026-05-07 18:41 55.63799 12.68711 407 ft 137 kts 222°
2026-05-07 18:41 55.63084 12.67619 219 ft 135 kts 223°
2026-05-07 18:41 55.62385 12.66516 49 ft 134 kts 221°
2026-05-07 18:41 55.61768 12.65557 23 ft 96 kts 221°
2026-05-07 18:42 55.61407 12.64995 27 ft 42 kts 221°
2026-05-07 18:42 55.61265 12.64659 24 ft 32 kts 253°
2026-05-07 18:42 55.61194 12.64287 24 ft 30 kts 253°
2026-05-07 18:42 55.61304 12.64137 24 ft 27 kts 26°
2026-05-07 18:43 55.61461 12.64314 24 ft 26 kts 34°
2026-05-07 18:43 55.61620 12.64499 24 ft 28 kts 32°
2026-05-07 18:43 55.61784 12.64546 26 ft 25 kts 348°
2026-05-07 18:43 55.61958 12.64488 24 ft 26 kts 349°
2026-05-07 18:44 55.62098 12.64441 25 ft 7 kts 349°
2026-05-07 18:44 55.62104 12.64439 25 ft 0 kts 350°
2026-05-07 18:44 55.62117 12.64435 23 ft 6 kts 350°
2026-05-07 18:44 55.62190 12.64412 22 ft 16 kts 349°
2026-05-07 18:45 55.62285 12.64269 21 ft 22 kts 302°
2026-05-07 18:45 55.62385 12.64002 21 ft 29 kts 304°
2026-05-07 18:45 55.62542 12.63773 23 ft 29 kts 351°
2026-05-07 18:45 55.62631 12.63797 24 ft 0 kts 17°
2026-05-07 18:46 55.62631 12.63798 24 ft 0 kts 17°
2026-05-07 18:46 55.62667 12.63831 24 ft 12 kts 30°
2026-05-07 18:46 55.62758 12.63936 25 ft 15 kts 34°
2026-05-07 18:46 55.62843 12.63985 24 ft 11 kts 11°
2026-05-07 18:47 55.62876 12.63998 24 ft 1 kts 12°
2026-05-07 18:47 55.62882 12.64000 24 ft 0 kts 12°